Malmstrom AFB, MT

7:40 PM MDT on April 30, 2017 (GMT -0600)
Malmstrom AFB

Weather History for KGFA - August, 2013

Change the Weather History Date:

Friday, August 23, 2013

  Actual Average (KGTF) Record (KGTF)
Temperature  
Mean Temperature 78 °F -  
Max Temperature 89 °F 80 °F 102 °F (1969)
Min Temperature 68 °F 51 °F 32 °F (1992)
Cooling Degree Days 14    
Growing Degree Days 28 (Base 50)    
Moisture  
Dew Point 44 °F    
Average Humidity 31    
Maximum Humidity 49    
Minimum Humidity 16    
Precipitation  
Precipitation 0.00 in - - ()
Sea Level Pressure  
Sea Level Pressure 29.79 in    
Wind  
Wind Speed 10 mph (SSW)    
Max Wind Speed 22 mph    
Max Gust Speed 30 mph    
Visibility 10 miles    
Events      
Averages and records for this station are not official NWS values.
T = Trace of Precipitation, MM = Missing Value Source: NWS Daily Summary

Daily Weather History Graph

Daily Weather History Graph

Search for Another Location

Airport or City:

Trip Planner

Search our weather history database for the weather conditions in past years. The results will help you decide how hot, cold, wet, or windy it might be!

Date:

Astronomy

Aug. 23, 2013 Rise Set
Actual Time 6:31 AM MDT 8:21 PM MDT
Civil Twilight 5:59 AM MDT 8:54 PM MDT
Nautical Twilight 5:18 AM MDT 9:34 PM MDT
Astronomical Twilight 4:34 AM MDT 10:18 PM MDT
Moon 9:23 PM MDT (8/23) 9:48 AM MDT (8/23)
Length of Visible Light 14h 55m
Length of Day
13h 49m
Waning Gibbous, 91% of the Moon is Illuminated
Aug 23
Waning Gibbous
Aug 28
Last Quarter
Sep 5
New
Sep 12
First Quarter
Sep 19
Full

Hourly Weather History & Observations

Time (MDT) Temp. Dew Point Humidity Pressure Visibility Wind Dir Wind Speed Gust Speed Precip Events Conditions
12:56 AM 68.0 °F 48.0 °F 49% 29.86 in 10.0 mi SSE 5.8 mph - N/A   Clear
1:56 AM 75.9 °F 46.9 °F 36% 29.83 in 10.0 mi South 11.5 mph - N/A   Clear
2:56 AM 73.9 °F 46.9 °F 38% 29.82 in 10.0 mi SSW 10.4 mph - N/A   Clear
3:56 AM 71.1 °F 46.9 °F 42% 29.81 in 10.0 mi South 11.5 mph - N/A   Clear
4:56 AM 70.0 °F 46.0 °F 42% 29.82 in 10.0 mi SSW 9.2 mph - N/A   Clear
5:56 AM 72.0 °F 46.9 °F 41% 29.81 in 10.0 mi South 11.5 mph - N/A   Clear
6:56 AM 72.0 °F 46.9 °F 41% 29.81 in 10.0 mi SSW 11.5 mph - N/A   Clear
7:56 AM 73.0 °F 48.0 °F 41% 29.81 in 10.0 mi SSW 12.7 mph - N/A   Clear
8:56 AM 75.0 °F 48.0 °F 38% 29.83 in 10.0 mi SSW 11.5 mph - N/A   Clear
9:56 AM 77.0 °F 48.0 °F 36% 29.83 in 10.0 mi WSW 6.9 mph - N/A   Clear
10:56 AM 80.1 °F 48.0 °F 32% 29.85 in 10.0 mi SW 12.7 mph - N/A   Clear
11:56 AM 84.0 °F 45.0 °F 25% 29.85 in 10.0 mi SSW 16.1 mph 23.0 mph N/A   Clear
12:56 PM 82.9 °F 44.1 °F 25% 29.83 in 10.0 mi WSW 10.4 mph 18.4 mph N/A   Clear
1:56 PM 84.9 °F 44.1 °F 24% 29.77 in 10.0 mi Variable 5.8 mph - N/A   Clear
2:56 PM 87.1 °F 42.1 °F 21% 29.75 in 10.0 mi WSW 6.9 mph 18.4 mph N/A   Clear
3:56 PM 87.1 °F 42.1 °F 21% 29.74 in 9.0 mi SW 6.9 mph - N/A   Clear
4:56 PM 89.1 °F 37.9 °F 16% 29.72 in 10.0 mi South 18.4 mph 25.3 mph N/A   Clear
5:56 PM 87.1 °F 37.9 °F 18% 29.72 in 10.0 mi South 21.9 mph 29.9 mph N/A   Clear
6:56 PM 82.9 °F 44.1 °F 25% 29.73 in 10.0 mi South 17.3 mph 27.6 mph N/A   Clear
7:56 PM 79.0 °F 42.1 °F 27% 29.74 in 10.0 mi South 5.8 mph - N/A   Clear
8:56 PM 75.0 °F 41.0 °F 29% 29.75 in 10.0 mi South 8.1 mph - N/A   Clear
9:16 PM 73.4 °F 39.2 °F 29% 29.78 in 10.0 mi South 10.4 mph - N/A   Partly Cloudy
9:56 PM 75.0 °F 39.0 °F 27% 29.77 in 10.0 mi SSW 11.5 mph - N/A   Clear
10:56 PM 73.0 °F 41.0 °F 31% 29.79 in 10.0 mi SSW 9.2 mph - N/A   Clear
11:56 PM 73.9 °F 42.1 °F 32% 29.81 in 10.0 mi West 5.8 mph - N/A   Partly Cloudy